| time (UTC) | temp C | wind direction | speed KPH | gust KPH | rain 1hr cm | rain 24hr cm | rain mn cm | humidity % | barometer mb |
| 20260503003539 | 12 | 0.0 | 0.0 | 0.00 | 0.00 | 0.00 | 37 | 1022.0 | |
| 20260503001535 | 13 | 0.0 | 0.0 | 0.00 | 0.00 | 0.00 | 37 | 1022.2 | |
| 20260502235531 | 13 | 0.0 | 0.0 | 0.00 | 0.00 | 0.00 | 37 | 1022.3 | |
| 20260502233528 | 13 | 0.0 | 0.0 | 0.00 | 0.00 | 0.00 | 38 | 1022.4 | |
| 20260502231524 | 13 | 0.0 | 0.0 | 0.00 | 0.00 | 0.00 | 38 | 1022.5 | |
| 20260502225521 | 14 | 0.0 | 0.0 | 0.00 | 0.00 | 0.00 | 38 | 1022.6 | |
| 20260502223517 | 14 | 0.0 | 0.0 | 0.00 | 0.00 | 0.00 | 38 | 1022.6 | |
| 20260502221513 | 15 | 0.0 | 0.0 | 0.00 | 0.00 | 0.00 | 38 | 1022.6 | |
| 20260502215510 | 15 | 0.0 | 0.0 | 0.00 | 0.00 | 0.00 | 38 | 1022.6 | |
| 20260502213506 | 15 | 0.0 | 0.0 | 0.00 | 0.00 | 0.00 | 38 | 1022.7 | |
| 20260502211503 | 15 | 0.0 | 0.0 | 0.00 | 0.00 | 0.00 | 38 | 1022.7 | |
| 20260502205459 | 16 | 0.0 | 0.0 | 0.00 | 0.00 | 0.00 | 38 | 1022.7 | |
| 20260502203456 | 16 | 0.0 | 0.0 | 0.00 | 0.00 | 0.00 | 38 | 1022.8 | |
| 20260502201452 | 16 | 0.0 | 0.0 | 0.00 | 0.00 | 0.00 | 38 | 1022.7 | |
| 20260502195448 | 17 | 0.0 | 0.0 | 0.00 | 0.00 | 0.00 | 38 | 1022.7 | |
| 20260502193445 | 17 | 0.0 | 0.0 | 0.00 | 0.00 | 0.00 | 38 | 1022.6 | |
| 20260502191441 | 17 | 0.0 | 0.0 | 0.00 | 0.00 | 0.00 | 38 | 1022.5 | |
| 20260502185438 | 18 | 0.0 | 0.0 | 0.00 | 0.00 | 0.00 | 38 | 1022.1 | |
| 20260502183434 | 18 | 0.0 | 0.0 | 0.00 | 0.00 | 0.00 | 38 | 1021.9 | |
| 20260502181432 | 19 | 0.0 | 0.0 | 0.00 | 0.00 | 0.00 | 38 | 1021.6 | |
| 20260502163658 | 21 | 0.0 | 0.0 | 0.00 | 0.00 | 0.00 | 38 | 1021.6 | |
| 20260502161654 | 21 | 0.0 | 0.0 | 0.00 | 0.00 | 0.00 | 38 | 1021.7 | |
| 20260502151643 | 21 | 0.0 | 0.0 | 0.00 | 0.00 | 0.00 | 38 | 1022.2 | |
| 20260502123615 | 23 | 0.0 | 0.0 | 0.00 | 0.00 | 0.00 | 40 | 1023.5 | |
| 20260502121611 | 25 | 0.0 | 0.0 | 0.00 | 0.00 | 0.00 | 40 | 1023.6 | |
| 20260502115608 | 26 | 0.0 | 0.0 | 0.00 | 0.00 | 0.00 | 40 | 1023.7 | |
| 20260502113604 | 28 | 0.0 | 0.0 | 0.00 | 0.00 | 0.00 | 40 | 1023.6 | |
| 20260502111601 | 30 | 0.0 | 0.0 | 0.00 | 0.00 | 0.00 | 40 | 1023.8 | |
| 20260502105557 | 31 | 0.0 | 0.0 | 0.00 | 0.00 | 0.00 | 39 | 1023.9 | |
| 20260502103553 | 31 | 0.0 | 0.0 | 0.00 | 0.00 | 0.00 | 39 | 1024.1 | |
| 20260502101550 | 30 | 0.0 | 0.0 | 0.00 | 0.00 | 0.00 | 38 | 1024.5 | |
| 20260502071518 | 19 | 0.0 | 0.0 | 0.00 | 0.00 | 0.00 | 37 | 1027.1 | |
| 20260502065514 | 17 | 0.0 | 0.0 | 0.00 | 0.00 | 0.00 | 37 | 1027.4 | |
| 20260502063510 | 16 | 0.0 | 0.0 | 0.00 | 0.00 | 0.00 | 36 | 1027.8 | |
| 20260502061507 | 13 | 0.0 | 0.0 | 0.00 | 0.00 | 0.00 | 36 | 1028.0 | |
| 20260502055503 | 11 | 0.0 | 0.0 | 0.00 | 0.00 | 0.00 | 36 | 1028.2 | |
| 20260502053500 | 9 | 0.0 | 0.0 | 0.00 | 0.00 | 0.00 | 36 | 1028.5 | |
| 20260502051456 | 8 | 0.0 | 0.0 | 0.00 | 0.00 | 0.00 | 37 | 1028.7 | |
| 20260502045453 | 8 | 0.0 | 0.0 | 0.00 | 0.00 | 0.00 | 37 | 1028.7 | |
| 20260502043449 | 8 | 0.0 | 0.0 | 0.00 | 0.00 | 0.00 | 37 | 1028.7 | |
| 20260502041445 | 8 | 0.0 | 0.0 | 0.00 | 0.00 | 0.00 | 37 | 1028.6 | |
| 20260502035442 | 8 | 0.0 | 0.0 | 0.00 | 0.00 | 0.00 | 37 | 1028.7 | |
| 20260502033438 | 8 | 0.0 | 0.0 | 0.00 | 0.00 | 0.00 | 37 | 1028.6 | |
| 20260502031435 | 8 | 0.0 | 0.0 | 0.00 | 0.00 | 0.00 | 37 | 1028.5 | |
| 20260502025431 | 8 | 0.0 | 0.0 | 0.00 | 0.00 | 0.00 | 37 | 1028.5 | |
| 20260502023428 | 9 | 0.0 | 0.0 | 0.00 | 0.00 | 0.00 | 37 | 1028.5 | |
| 20260502021424 | 9 | 0.0 | 0.0 | 0.00 | 0.00 | 0.00 | 37 | 1028.6 | |
| 20260502015420 | 10 | 0.0 | 0.0 | 0.00 | 0.00 | 0.00 | 37 | 1028.6 | |
| 20260502013417 | 10 | 0.0 | 0.0 | 0.00 | 0.00 | 0.00 | 37 | 1028.6 | |
| 20260502011413 | 10 | 0.0 | 0.0 | 0.00 | 0.00 | 0.00 | 37 | 1028.7 | |
| 20260502005410 | 10 | 0.0 | 0.0 | 0.00 | 0.00 | 0.00 | 37 | 1028.7 |